Location: Eitze
(52.9840°N, 9.6894°E)
Time: 10:02:55
(UTC+00:00)

ACS3 Solar Sail - Visible Passes

Search period start: 20 January 2026 00:00
Search period end: 30 January 2026 00:00
Orbit: 898 x 978 km, 97.2° (Epoch: 19 January)

Date Brightness Start Highest point End Pass type
(mag) Time Alt. Az. Time Alt. Az. Time Alt. Az.
20 Jan 4.3 02:17:39 10° N 02:17:55 11° N 02:17:55 11° N visible
20 Jan 4.0 04:01:26 10° N 04:01:47 11° NNW 04:01:47 11° NNW visible
21 Jan 4.2 02:31:34 10° N 02:31:59 12° N 02:31:59 12° N visible
21 Jan 4.0 04:15:39 10° NNW 04:15:50 10° NNW 04:15:50 10° NNW visible
22 Jan 4.2 02:45:30 10° N 02:46:02 13° N 02:46:02 13° N visible
23 Jan 4.1 02:59:28 10° N 03:00:05 13° N 03:00:05 13° N visible
24 Jan 4.0 03:13:28 10° N 03:14:09 13° N 03:14:09 13° N visible
25 Jan 4.5 01:44:12 10° NNE 01:44:21 11° NNE 01:44:21 11° NNE visible
25 Jan 4.0 03:27:31 10° N 03:28:13 13° N 03:28:13 13° N visible
26 Jan 4.3 01:58:03 10° NNE 01:58:25 12° NNE 01:58:25 12° NNE visible
26 Jan 3.9 03:41:36 10° N 03:42:16 13° N 03:42:16 13° N visible
27 Jan 4.2 02:11:56 10° N 02:12:29 13° N 02:12:29 13° N visible
27 Jan 3.9 03:55:44 10° N 03:56:21 12° NNW 03:56:21 12° NNW visible
28 Jan 4.1 02:25:51 10° N 02:26:32 14° N 02:26:32 14° N visible
28 Jan 3.9 04:09:58 10° NNW 04:10:25 11° NNW 04:10:25 11° NNW visible
29 Jan 4.0 02:39:47 10° N 02:40:36 14° N 02:40:36 14° N visible
29 Jan 3.9 04:24:23 10° NNW 04:24:28 10° NNW 04:24:28 10° NNW visible
